Regional Weather Roundup
Issued by NWS Wakefield, VA

Home | Current Version | Previous Version | Graphics & Text | Print | Product List | Glossary On
Versions: 1 2 3 4 5 6 7 8 9 10 11 12 13 14 15 16 17 18 19 20 21 22 23 24 25 26 27 28 29 30 31 32 33 34 35 36 37 38 39 40 41 42 43 44 45 46 47 48 49 50
000
ASUS41 KAKQ 210210
RWRAKQ

REGIONAL WEATHER ROUNDUP
NATIONAL WEATHER SERVICE WAKEFIELD VA
1000 PM EDT WED AUG 20 2014

Note: "fair" indicates few or no clouds below 12,000 feet with no
significant weather and/or obstructions to visibility. * = Denotes
station may not report precipitation (e.g., rain,snow,etc.),
thunder or fog.

VAZ042-051-052>054-056-210300-
NORTHERN VIRGINIA

CITY           SKY/WX    TMP DP  RH WIND       PRES   REMARKS
WASH NATIONAL  MOCLDY    74  66  76 CALM      30.00R
DULLES         PTCLDY    67  65  93 CALM      30.01R
FORT BELVOIR   MOCLDY    68  67  98 W5        30.01R
QUANTICO       MOCLDY    71  69  93 NW8       30.01R
FREDERICKSBRG* MOCLDY    71  71 100 NW3       29.99R
STAFFORD*      MOCLDY    67  67 100 CALM      30.04R
WARRENTON      MOCLDY    70  70 100 CALM      30.00R
CULPEPER*      PTCLDY   N/A N/A N/A CALM      30.02R
MANASSAS*      PTCLDY    70  68  94 CALM      30.01R
LEESBURG*      PTCLDY    68  68 100 CALM      30.01S
WINCHESTER     CLEAR     70  66  88 CALM      30.01R
$$

VAZ048-049-060>072-079>083-210300-
CENTRAL AND SOUTH CENTRAL VIRGINIA...AND NORTH CENTRAL NORTH CAROLINA

CITY           SKY/WX    TMP DP  RH WIND       PRES   REMARKS
RICHMOND       MOCLDY    76  69  79 S7        29.98S
CHESTERFIELD*  PTCLDY    77  61  57 S9        30.00R
HANOVER        CLOUDY    76  68  76 CALM      30.00R
TAPPAHANNOCK*  CLOUDY    74  63  69 CALM      29.99R
CHARLOTTSVILLE LGT RAIN  69  67  93 SW3       30.03S
ORANGE*        CLOUDY    70  68  94 SW3       30.04R
LOUISA*        CLOUDY    70  70 100 W6        30.02R
FARMVILLE*     CLEAR     77  75  94 CALM      29.98R
SOUTH HILL*    CLEAR     75  75 100 CALM      30.06R
ROANOKE RAPIDS CLEAR     73  72  94 CALM      30.01R
RALEIGH        PTCLDY    71  68  90 CALM      30.02R
$$

VAZ088>098-210300-
SOUTHEAST VIRGINIA

CITY           SKY/WX    TMP DP  RH WIND       PRES   REMARKS
NORFOLK        PTCLDY    75  68  78 CALM      30.01R
VIRGINIA BEACH PTCLDY    75  68  78 SE5       30.00R
NORFOLK NAVAL  PTCLDY    76  69  79 SE6       30.02R
WEST POINT*    CLEAR     76  68  77 SE6       29.99R
NEWPORT NEWS   PTCLDY    79  70  74 SE7       29.99F
LANGLEY AFB    PTCLDY    76  73  90 S7        29.99S
FORT EUSTIS    CLEAR     74  72  91 SE6       29.98S
WILLIAMSBURG*  CLEAR     77  72  83 SE12      30.00F
FRANKLIN*      MOCLDY    75  72  88 SE6       30.00S
WAKEFIELD      CLEAR     75  69  81 CALM      30.01R
$$

VAZ020-022-025-037-045-210300-
WESTERN AND SOUTHWEST VIRGINIA

CITY           SKY/WX    TMP DP  RH WIND       PRES   REMARKS
STAUNTON*      MOCLDY    70  67  91 CALM      30.06R
HOT SPRINGS VA CLEAR     67  59  76 W7        30.19S
LYNCHBURG      MOCLDY    73  72  96 CALM      30.03R
DANVILLE       CLOUDY    79  74  84 CALM      30.02R
MARTINSVILLE   PTCLDY    73  73  99 CALM      30.07R
ROANOKE        PTCLDY    76  67  73 NW6       30.06R
BLACKSBURG     MOCLDY    72  70  94 CALM      30.13R
DUBLIN*        CLOUDY    74  69  83 W7        30.12R
MARION*        CLOUDY    73  70  89 SW12G17   30.18R
HILLSVILLE*    CLOUDY    72  67  84 W5        30.16R
RICHLANDS*     CLOUDY    74  68  80 SW9G16    30.17S
WISE*          LGT RAIN  68  64  88 S6        30.17F
ABINGDON*      RAIN      72  69  90 NW5       30.20R
$$

MDZ021>025-VAZ099-100-210300-
SOUTHERN MARYLAND AND THE DELMARVA PENINSULA

CITY           SKY/WX    TMP DP  RH WIND       PRES   REMARKS
PATUXENT RIVER MOCLDY    75  65  70 CALM      29.98R
BAY BRIDGE APT   N/A     77  63  61 SE7       29.99R
LEONARDTOWN    MOCLDY    73  61  64 CALM      30.00R
DOVER          MOCLDY    72  67  84 SE7G16    29.97F
GEORGETOWN     PTCLDY    70  64  81 E9        30.00S
EASTON         NOT AVBL
CAMBRIDGE      MOCLDY    72  61  68 CALM      30.00R
SALISBURY      PTCLDY    72  63  73 E6        29.99R
OCEAN CITY     PTCLDY    73  66  78 E9        29.98F
WALLOPS ISLAND PTCLDY    74  69  85 SE13      29.97F
ACCOMACK*      PTCLDY    72  66  83 SE8       29.95F
$$

NCZ012>017-030>032-210300-
EASTERN NORTH CAROLINA

CITY           SKY/WX    TMP DP  RH WIND       PRES   REMARKS
ELIZABETH CITY CLEAR     75  71  87 E5        30.01R
AHOSKIE*       CLEAR     73  72  95 CALM      30.01S
EDENTON*       PTCLDY    78  74  90 SE6       30.01S
CURRITUCK*     CLEAR     75  67  76 CALM      30.02S
KILL DEVIL HLS CLEAR     76  71  84 CALM      30.01R
MANTEO         CLEAR     73  72  94 CALM      30.02S
CAPE HATTERAS  PTCLDY    74  72  93 NE3       30.02R
GOLDSBORO      CLEAR     79  78  98 CALM      30.00R
WASHINGTON     CLEAR     78  74  88 SE3       30.01R
GREENVILLE     PTCLDY    77  75  94 CALM      30.03R
NEW BERN       CLEAR     79  74  84 CALM      30.02R
WILMINGTON     CLEAR     77  75  93 CALM      30.01R
$$

VAZ048-210300-
ELSEWHERE

CITY           SKY/WX    TMP DP  RH WIND       PRES   REMARKS
HARRISBURG PA  MOCLDY    73  68  84 VRB3      29.99R
BALTIMORE      MOCLDY    70  67  90 CALM      29.98R
ANNAPOLIS        N/A     75  63  66 S3        29.98R
ANDREWS AFB    MOCLDY    69  66  93 N2        30.00R
WILMINGTON DE  CLOUDY    74  65  73 SE10      30.00S
PHILADELPHIA   CLOUDY    74  61  63 SE6       30.00S
WILDWOOD NJ*   CLEAR     72  61  68 E6        30.01F
ATLANTIC CITY  CLEAR     67  63  87 E5        30.00F
HENDERSON NC   CLEAR     75  72  91 S3        30.02R
GREENSBORO     MOCLDY    80  71  74 SW7       30.04R
ROCKY MOUNT    CLEAR     75  73  93 CALM      30.02R
FAYETTEVILLE   CLEAR     81  75  82 SW5       30.01R
CHARLOTTE      CLOUDY    80  71  74 NW3       30.04R
$$

VAZ100-210300-
MARINE

STATION/POSITION TIME  TEMP    WIND        PRES    WAVE   SWELL
                       AIR SEA DIR/SP/G            HT/PER HT/PER
                 (UTC) (F)     (DEG/KT/KT) (MB)    (FT/S) (FT/S)
44066 TX TWR #4  0200   71 73   30/  4/  6 1016.7R   3/ 7   3/ 7
CAPE MAY NJ      0200   71 80  130/  8/ 11 1015.0F
LEWES DE         0200   73 75  140/  3/  4 1015.6R
15NM E FENWICK I 0200   73 75              1015.3F   3/ 6
OCEAN-CITY-INLET 0200   74 76  130/  7/ 11 1015.1R
WACHAPREAGUE VA  0200   74 81  130/  7/ 10 1014.7F
THOMAS POINT MD  0200   78 78  150/ 11/ 13 1015.7R
GOOSES REEF MD   0200   78     150/ 14/ 16 1015.3S
COVE POINT MD    0200   77     170/ 14/ 17 1014.7F
SOLOMONS ISLAND  0200      80                N/A
BISHOPS HEAD MD  0200   75 81  130/  8/ 11 1015.1R
PINEY POINT MD   0200          190/ 10/ 11   N/A
POTOMAC MD       0200   77     160/ 14/ 17 1014.0F
CAMBRIDGE MD     0200   75 78  130/  4/  7 1015.5R
LEWISETTA VA     0200   75 80  160/  4/  6 1014.6R
RAPPAHANNOCK LGT 0200          130/ 16/ 18 1014.8F
STINGRAY PT      0200   76     150/ 16/ 19 1015.1R
YORK RVR RNG VA  0200   76     140/ 12/ 14 1015.1F
YORKTOWN VA      0200   76 80  170/  6/  7 1015.4F
JAMESTOWN VA     0200   75     130/ 12/ 14   N/A
DOMINION TERM VA 0200   77     120/ 11/ 12 1015.9R
KIPTOPEKE VA     0200      82  140/  8/ 11   N/A
CHES BAY BRIDGE  0200   77 76  100/  7/ 10 1015.3R
CAPE HENRY VA    0200   76     100/ 11/ 12 1014.5F
CHESAPEAKE LGHT  0100   76      90/ 13/ 13 1016.1S
WILLOUBY STN VA  0200   76     100/  5/  7 1014.7R
S CRANEY ISL VA  0200          100/  5/  7 1015.9R
CAPE HENRY BUOY  0200      77                N/A     2/ 6
1ST LANDING BUOY 0200   77     110/ 10/ 14 1015.4F
CAPE CHARLES BUO 0200      77                N/A     2/ 6   2/ 6
OFFSHORE WE BUOY 0200      77                N/A     3/ 5   2/ 5
64NM E OF VA BCH 0200   77 78   50/  6/  8 1015.9R   3/ 7   2/ 7
DUCK PIER NC     0200   77 79  100/  6/  8 1015.7R
44056 DUCK FRF   0100                        N/A     2/ 6
OREGON INLET NC  0200   77 82   70/  3/  4 1016.5R
HATTERAS NC      0200   79 82   70/  2/  5 1016.9R
DIAMOND SHLS NC  0200   78     310/  2/  4 1016.2R   2/ 6   2/ 6
CAPE LOOKOUT NC  0100   81     220/  4/  5 1015.6R
$$


USA.gov is the U.S. government's official web portal to all federal, state and local government web resources and services.